This demonstration page uses our WeatherBlox Daily Observations layout. Learn more.

Left ArrowRight Arrow

Hourly Observations for October 18, 2022

Temp ( °F °C ) Dew Point ( °F °C ) Humidity (%) Winds ( mph kmh ) Pressure ( in mb ) Visibility ( mi km ) Precip ( " mm )
12:56 am 00:56 Clear 30 -1.1 16 -8.9 55 55 NNE 8 13 30.36 1028 10 16 0.00 0.00
1:56 am 01:56 Clear 28 -2.2 15 -9.4 58 58 NNE 9 15 30.37 1029 10 16 0.00 0.00
2:56 am 02:56 Clear 27 -2.8 14 -10 57 57 N 8 13 30.39 1029 10 16 0.00 0.00
3:56 am 03:56 Clear 27 -2.8 13 -10.6 55 55 N 8 13 30.39 1029 10 16 0.00 0.00
4:56 am 04:56 Clear 26 -3.3 13 -10.6 57 57 NNW 8 13 30.40 1030 10 16 0.00 0.00
5:56 am 05:56 Clear 25 -3.9 14 -10 62 62 NNW 6 9 30.42 1030 10 16 0.00 0.00
6:56 am 06:56 Clear 24 -4.4 13 -10.6 62 62 NNW 7 11 30.45 1031 10 16 0.00 0.00
7:56 am 07:56 Sunny 23 -5 13 -10.6 65 65 NNW 5 7 30.47 1032 10 16 0.00 0.00
8:56 am 08:56 Sunny 27 -2.8 13 -10.6 55 55 N 8 13 30.49 1032 10 16 0.00 0.00
9:56 am 09:56 Sunny 31 -0.6 12 -11.1 45 45 NNE 7 11 30.49 1033 10 16 0.00 0.00
10:56 am 10:56 Sunny 34 1.1 7 -13.9 32 32 VRB 6 9 30.48 1032 9 14 0.00 0.00
11:56 am 11:56 Sunny 38 3.3 7 -13.9 27 27 N 6 9 30.48 1032 10 16 0.00 0.00
12:56 pm 12:56 Sunny 41 5 8 -13.3 25 25 NNE 8 13 30.46 1032 10 16 0.00 0.00
1:56 pm 13:56 Sunny 44 6.7 7 -13.9 21 21 NE 7 11 30.43 1030 10 16 0.00 0.00
2:56 pm 14:56 Sunny 47 8.3 6 -14.4 18 18 N 8 13 30.40 1029 10 16 0.00 0.00
3:56 pm 15:56 Sunny 49 9.4 4 -15.6 15 15 NW 9 15 30.37 1028 10 16 0.00 0.00
4:56 pm 16:56 Sunny 48 8.9 3 -16.1 15 15 Calm 30.36 1028 10 16 0.00 0.00
5:56 pm 17:56 Sunny 48 8.9 6 -14.4 18 18 N 6 9 30.35 1028 10 16 0.00 0.00
6:56 pm 18:56 Clear 42 5.6 9 -12.8 25 25 ENE 7 11 30.37 1028 10 16 0.00 0.00
7:07 pm 19:07 Hazy 41 5 9 -13 26 26 ENE 7 11 30.36 1028 2 2 0.00 0.00
7:17 pm 19:17 Clear 39 4 9 -13 28 28 ENE 7 11 30.37 1028 10 16 0.00 0.00
7:56 pm 19:56 Clear 38 3.3 10 -12.2 31 31 E 7 11 30.37 1029 10 16 0.00 0.00
8:56 pm 20:56 Clear 37 2.8 10 -12.2 32 32 SSE 3 6 30.36 1028 10 16 0.00 0.00
9:56 pm 21:56 Clear 36 2.2 11 -11.7 35 35 SSE 3 6 30.35 1028 10 16 0.00 0.00
10:56 pm 22:56 Clear 35 1.7 12 -11.1 38 38 SSW 3 6 30.36 1028 10 16 0.00 0.00
11:56 pm 23:56 Clear 33 0.6 16 -8.9 49 49 Calm 30.35 1028 10 16 0.00 0.00

Powered by AerisWeather